Regional Weather Roundup
Issued by NWS

Home | Current Version | Previous Version | Graphics & Text | Print | Product List | Glossary On
Versions: 1 2 3 4 5 6 7 8 9 10 11 12 13 14 15 16 17 18 19 20 21 22 23 24 25 26 27 28 29 30 31 32 33 34 35 36 37 38 39 40 41 42 43 44 45 46 47 48 49 50
000
ASUS43 KDTX 242101
RWRMI
MICHIGAN HOURLY REGIONAL WEATHER ROUNDUP
NATIONAL WEATHER SERVICE DETROIT/PONTIAC MI
500 PM EDT TUE MAY 24 2016

NOTE: "FAIR" INDICATES FEW OR NO CLOUDS BELOW 12,000 FEET WITH NO
SIGNIFICANT WEATHER AND/OR OBSTRUCTION TO VISIBILITY.

MIZ047>049-052>055-059>063-066>070-074>076-081>083-242200-
SOUTHEAST LOWER MICHIGAN

CITY           SKY/WX    TMP DP  RH WIND       PRES   REMARKS
ADRIAN         SUNNY     83  48  29 W9        30.00F
ALMA           SUNNY     82  48  30 SW13      29.96F
ANN ARBOR      SUNNY     83  49  30 W9        29.98F
BAD AXE        SUNNY     84  45  25 W8        29.95S
CARO           SUNNY     83  51  31 SW14      29.95S
DETROIT CITY   SUNNY     83  49  30 S13       29.98F
DETROIT        PTSUNNY   85  49  28 SW14      29.99F
FLINT          SUNNY     87  46  24 SW14G21   29.97F
GROSSE ILE     SUNNY     77  48  36 S12       29.98F
HILLSDALE      SUNNY     82  36  19 S12       30.00F
HOWELL         SUNNY     83  47  27 SW8       29.98F

CITY           SKY/WX    TMP DP  RH WIND       PRES   REMARKS
JACKSON        SUNNY     83  48  29 SW9       29.99F
LAMBERTVILLE   SUNNY     85  45  25 SW6       30.00F
LANSING        SUNNY     83  49  30 SW14G22   29.98F
LAPEER         FAIR      86  40  19 W10G17    29.98S
MASON          MOSUNNY   83  50  31 SW8       29.98F
MONROE         SUNNY     85  50  30 W9G18     29.99F
PONTIAC        PTSUNNY   83  45  26 W8G16     29.98F
PORT HOPE        N/A     67  52  58 E9        29.93F
PORT HURON     SUNNY     82  48  30 SW7       29.98F
TRI CITIES     MOSUNNY   86  48  26 W16       29.95F
MIDLAND        FAIR      85  50  29 W8G23     29.93F
TROY           SUNNY     86  45  23 W6G12     30.00F
SAGINAW HB     SUNNY     86  43  22 SW15      29.95S
$$
MIZ043>046-050>051-056>058-064>065-071>073-077>080-242200-
SOUTHWEST LOWER MICHIGAN

CITY           SKY/WX    TMP DP  RH WIND       PRES   REMARKS
BATTLE CREEK   SUNNY     83  49  30 SW10G23   29.99F
BENTON HARBOR  SUNNY     83  50  31 W6        29.96F
BIG RAPIDS     SUNNY     81  42  25 SW13G28   29.95F
COLDWATER      SUNNY     83  48  29 SW9G25    29.99F
FREMONT        FAIR      82  44  26 SW20      29.96S
HOLLAND        SUNNY     83  52  34 W15       29.98F
GRAND RAPIDS   MOSUNNY   86  48  26 W14       29.97F
IONIA          FAIR      84  46  26 SW15G24   29.96F
KALAMAZOO      SUNNY     85  47  26 SW10      29.98F
LUDINGTON      MOSUNNY   74  53  46 S17G24    29.95S
MARSHALL       SUNNY     84  48  28 SW5       29.98F
MOUNT PLEASANT SUNNY     83  49  30 SW13G18   29.95F
MUSKEGON       PTSUNNY   82  51  34 SW17      29.97F
SOUTH HAVEN    SUNNY     83  48  29 W8        29.97F
$$
MIZ016>042-242200-
NORTHERN LOWER MICHIGAN

CITY           SKY/WX    TMP DP  RH WIND       PRES   REMARKS
ALPENA         CLOUDY    83  49  30 SE10      29.88F
BEAVER ISLAND  CLOUDY    59  47  64 W12       29.95R
BELLAIRE       CLOUDY    84  43  23 W7        29.90R
CADILLAC       SUNNY     83  41  22 SW15G26   29.95S
CHARLEVOIX     CLOUDY    71  47  42 W14       29.94S
FRANKFORT      RAIN      60  51  73 W7G17     29.95R
GAYLORD        MOSUNNY   84  43  23 W18G24    29.92F
GRAYLING       MOSUNNY   86  46  24 SW13G22   29.93S
HARBOR SPRINGS CLOUDY    78  48  34 W8        29.91R
HOUGHTON LAKE  SUNNY     82  47  29 SW13      29.94F
MANISTEE       MOSUNNY   79  45  29 SW10G17   29.94S
OSCODA         MOSUNNY   86  43  22 S17G25    29.90F
PELLSTON       MOSUNNY   81  46  29 W14G23    29.91R
ROGERS CITY    SUNNY     66  51  57 CALM      29.92S
TRAVERSE CITY  PTSUNNY   87  33  14 SW13G29   29.88S
$$
MIZ007>008-015-242200-
EASTERN UPPER MICHIGAN

CITY           SKY/WX    TMP DP  RH WIND       PRES   REMARKS
KINROSS          N/A     79  52  38 W9G20     29.91R
MACKINAC ISLAN PTSUNNY   69  47  44 W9G17     29.91S
NEWBERRY       RAIN      61  59  92 SW6       29.95R
S. S. MARIE    CLOUDY    72  55  55 NW8       29.91R
MUNISING         N/A     49  48  97 NE9       29.94R
$$
MIZ004>006-011>014-085-242200-
CENTRAL UPPER MICHIGAN

CITY           SKY/WX    TMP DP  RH WIND       PRES   REMARKS
MANISTIQUE     RAIN      56  55  97 E6        29.91F
ESCANABA       CLOUDY    64  63  94 N5        29.91R
MENOMINEE      PTSUNNY   72  59  64 S9        29.88S
SAWYER-GWINN   RAIN      57  55  94 E7        29.94S
$$
MIZ001>003-009>011-084-242200-
WESTERN UPPER MICHIGAN

CITY           SKY/WX    TMP DP  RH WIND       PRES   REMARKS
IRON MOUNTAIN  CLOUDY    69  63  81 S5        29.90F
HOUGHTON       CLOUDY    59  56  89 E13       29.93R
COPPER HARBOR    N/A     56  53  90 SE8       29.93R
$$

ABBREVIATIONS USED IN REMARKS
   TC - TEMPERATURE IN CELSIUS
  WCI - WIND CHILL INDEX
   HX - HEAT INDEX
  VSB - VISIBILITY





USA.gov is the U.S. government's official web portal to all federal, state and local government web resources and services.